Location: Songkhla
(7.2000°N, 100.6000°E)
Time: 01:12:10
(UTC+07:00)

LAPAN A2 - All Passes

Search period start: 18 May 2021 00:00
Search period end: 28 May 2021 00:00
Orbit: 630 x 650 km, 6.0° (Epoch: 16 May)

Date Brightness Start Highest point End Pass type
(mag) Time Alt. Az. Time Alt. Az. Time Alt. Az.
18 May - 01:26:59 10° W 01:31:42 56° S 01:36:25 10° ESE night (unlit)
18 May - 03:11:37 10° WSW 03:16:07 39° S 03:20:37 10° ESE visible
18 May - 04:56:28 10° WSW 05:00:34 28° S 05:04:39 10° SE visible
18 May - 06:41:32 10° SW 06:45:04 20° S 06:48:36 10° SE daylight
18 May - 08:26:38 10° SW 08:29:39 17° S 08:32:41 10° SE daylight
18 May - 10:11:25 10° SW 10:14:17 16° S 10:17:08 10° SE daylight
18 May - 11:55:43 10° SW 11:58:53 18° S 12:02:03 10° SE daylight
18 May - 13:39:42 10° SW 13:43:25 23° S 13:47:08 10° ESE daylight
18 May - 15:23:40 10° WSW 15:27:51 32° S 15:32:04 10° ESE daylight
18 May - 17:07:44 10° WSW 17:12:15 46° S 17:16:47 10° E daylight
18 May - 18:51:57 10° WSW 18:56:38 64° S 19:01:21 10° E visible
18 May - 20:36:17 10° W 20:41:02 76° S 20:45:48 10° E visible
18 May - 22:20:41 10° W 22:25:27 76° S 22:30:15 10° E night (unlit)
19 May - 00:05:07 10° W 00:09:52 64° S 00:14:38 10° ESE night (unlit)
19 May - 01:49:40 10° W 01:54:17 47° S 01:58:55 10° ESE night (unlit)
19 May - 03:34:23 10° WSW 03:38:43 33° S 03:43:01 10° ESE visible
19 May - 05:19:22 10° WSW 05:23:11 23° S 05:27:01 10° SE visible
19 May - 07:04:29 10° SW 07:07:45 18° S 07:11:00 10° SE daylight
19 May - 08:49:27 10° SW 08:52:22 16° S 08:55:15 10° SE daylight
19 May - 10:33:59 10° SW 10:37:00 16° S 10:39:58 10° SE daylight
19 May - 12:18:06 10° SW 12:21:34 20° S 12:25:00 10° SE daylight
19 May - 14:02:03 10° SW 14:06:03 27° S 14:10:01 10° ESE daylight
19 May - 15:46:05 10° WSW 15:50:27 39° S 15:54:51 10° ESE daylight
19 May - 17:30:14 10° WSW 17:34:50 55° S 17:39:28 10° E daylight
19 May - 19:14:31 10° W 19:19:14 71° S 19:23:57 10° E visible
19 May - 20:58:53 10° W 21:03:37 77° S 21:08:24 10° E visible
19 May - 22:43:17 10° W 22:48:02 71° S 22:52:49 10° E night (unlit)
20 May - 00:27:46 10° W 00:32:27 55° S 00:37:10 10° ESE night (unlit)
20 May - 02:12:23 10° WSW 02:16:52 39° S 02:21:22 10° ESE night (unlit)
20 May - 03:57:14 10° WSW 04:01:19 27° S 04:05:24 10° SE visible
20 May - 05:42:17 10° SW 05:45:50 20° S 05:49:23 10° SE daylight
20 May - 07:27:24 10° SW 07:30:26 17° S 07:33:28 10° SE daylight
20 May - 09:12:09 10° SW 09:15:04 16° S 09:17:58 10° SE daylight
20 May - 10:56:27 10° SW 10:59:40 18° S 11:02:53 10° SE daylight
20 May - 12:40:28 10° SW 12:44:13 23° S 12:47:57 10° ESE daylight
20 May - 14:24:26 10° WSW 14:28:39 32° S 14:32:52 10° ESE daylight
20 May - 16:08:32 10° WSW 16:13:02 47° S 16:17:34 10° E daylight
20 May - 17:52:45 10° WSW 17:57:25 64° S 18:02:06 10° E daylight
20 May - 19:37:05 10° W 19:41:48 76° S 19:46:33 10° E visible
20 May - 21:21:29 10° W 21:26:13 75° S 21:30:59 10° E visible
20 May - 23:05:54 10° W 23:10:37 63° S 23:15:23 10° ESE night (unlit)
21 May - 00:50:26 10° W 00:55:02 46° S 00:59:39 10° ESE night (unlit)
21 May - 02:35:10 10° WSW 02:39:28 32° S 02:43:46 10° ESE night (unlit)
21 May - 04:20:07 10° WSW 04:23:57 23° S 04:27:46 10° SE visible
21 May - 06:05:14 10° SW 06:08:31 18° S 06:11:47 10° SE daylight
21 May - 07:50:12 10° SW 07:53:08 16° S 07:56:04 10° SE daylight
21 May - 09:34:43 10° SW 09:37:46 17° S 09:40:48 10° SE daylight
21 May - 11:18:50 10° SW 11:22:21 20° S 11:25:50 10° SE daylight
21 May - 13:02:49 10° SW 13:06:50 27° S 13:10:50 10° ESE daylight
21 May - 14:46:51 10° WSW 14:51:15 39° S 14:55:38 10° ESE daylight
21 May - 16:31:02 10° WSW 16:35:37 56° S 16:40:14 10° E daylight
21 May - 18:15:19 10° W 18:20:00 71° S 18:24:43 10° E daylight
21 May - 19:59:41 10° W 20:04:24 77° S 20:09:09 10° E visible
21 May - 21:44:05 10° W 21:48:48 70° S 21:53:33 10° E visible
21 May - 23:28:33 10° W 23:33:12 54° S 23:37:54 10° ESE night (unlit)
22 May - 01:13:09 10° WSW 01:17:38 38° S 01:22:05 10° ESE night (unlit)
22 May - 02:58:00 10° WSW 03:02:04 27° S 03:06:08 10° SE visible
22 May - 04:43:04 10° SW 04:46:36 20° S 04:50:08 10° SE visible
22 May - 06:28:08 10° SW 06:31:12 17° S 06:34:16 10° SE daylight
22 May - 08:12:54 10° SW 08:15:51 16° S 08:18:47 10° SE daylight
22 May - 09:57:11 10° SW 10:00:28 18° S 10:03:43 10° SE daylight
22 May - 11:41:12 10° SW 11:45:00 24° S 11:48:47 10° ESE daylight
22 May - 13:25:12 10° WSW 13:29:27 33° S 13:33:40 10° ESE daylight
22 May - 15:09:18 10° WSW 15:13:50 47° S 15:18:21 10° E daylight
22 May - 16:53:33 10° WSW 16:58:12 65° S 17:02:52 10° E daylight
22 May - 18:37:54 10° W 18:42:35 76° S 18:47:18 10° E daylight
22 May - 20:22:16 10° W 20:27:00 75° S 20:31:44 10° E visible
22 May - 22:06:42 10° W 22:11:23 62° S 22:16:07 10° ESE night (unlit)
22 May - 23:51:14 10° W 23:55:47 45° S 00:00:23 10° ESE night (unlit)
23 May - 01:35:57 10° WSW 01:40:13 32° S 01:44:30 10° ESE night (unlit)
23 May - 03:20:54 10° WSW 03:24:42 23° S 03:28:31 10° SE visible
23 May - 05:06:00 10° SW 05:09:17 18° S 05:12:33 10° SE visible
23 May - 06:50:57 10° SW 06:53:54 16° S 06:56:51 10° SE daylight
23 May - 08:35:27 10° SW 08:38:33 17° S 08:41:38 10° SE daylight
23 May - 10:19:34 10° SW 10:23:08 21° S 10:26:40 10° SE daylight
23 May - 12:03:33 10° SW 12:07:37 28° S 12:11:39 10° ESE daylight
23 May - 13:47:36 10° WSW 13:52:02 40° S 13:56:27 10° ESE daylight
23 May - 15:31:48 10° WSW 15:36:24 57° S 15:41:01 10° E daylight
23 May - 17:16:06 10° W 17:20:47 72° S 17:25:28 10° E daylight
23 May - 19:00:29 10° W 19:05:11 77° S 19:09:54 10° E visible
23 May - 20:44:53 10° W 20:49:34 69° S 20:54:18 10° E visible
23 May - 22:29:21 10° W 22:33:58 53° S 22:38:38 10° ESE night (unlit)
24 May - 00:13:57 10° WSW 00:18:23 37° S 00:22:49 10° ESE night (unlit)
24 May - 01:58:48 10° WSW 02:02:50 27° S 02:06:52 10° SE night (unlit)
24 May - 03:43:51 10° SW 03:47:21 20° S 03:50:53 10° SE visible
24 May - 05:28:54 10° SW 05:31:58 17° S 05:35:02 10° SE visible
24 May - 07:13:37 10° SW 07:16:37 16° S 07:19:36 10° SE daylight
24 May - 08:57:54 10° SW 09:01:14 19° S 09:04:33 10° SE daylight
24 May - 10:41:55 10° SW 10:45:46 24° S 10:49:36 10° ESE daylight
24 May - 12:25:56 10° WSW 12:30:13 34° S 12:34:29 10° ESE daylight
24 May - 14:10:04 10° WSW 14:14:37 48° S 14:19:09 10° E daylight
24 May - 15:54:20 10° WSW 15:58:59 65° S 16:03:39 10° E daylight
24 May - 17:38:41 10° W 17:43:22 76° S 17:48:05 10° E daylight
24 May - 19:23:05 10° W 19:27:46 75° S 19:32:29 10° E visible
24 May - 21:07:30 10° W 21:12:10 61° S 21:16:51 10° ESE visible
24 May - 22:52:01 10° WSW 22:56:33 44° S 23:01:06 10° ESE night (unlit)
25 May - 00:36:45 10° WSW 00:40:58 31° S 00:45:13 10° SE night (unlit)
25 May - 02:21:42 10° WSW 02:25:28 23° S 02:29:14 10° SE night (unlit)
25 May - 04:06:47 10° SW 04:10:02 18° S 04:13:17 10° SE visible
25 May - 05:51:41 10° SW 05:54:40 16° S 05:57:39 10° SE daylight
25 May - 07:36:10 10° SW 07:39:19 17° S 07:42:27 10° SE daylight
25 May - 09:20:17 10° SW 09:23:54 21° S 09:27:30 10° SE daylight
25 May - 11:04:17 10° SW 11:08:23 28° S 11:12:29 10° ESE daylight
25 May - 12:48:21 10° WSW 12:52:49 41° S 12:57:15 10° ESE daylight
25 May - 14:32:34 10° WSW 14:37:12 57° S 14:41:49 10° E daylight
25 May - 16:16:53 10° W 16:21:35 72° S 16:26:16 10° E daylight
25 May - 18:01:16 10° W 18:05:58 77° S 18:10:40 10° E daylight
25 May - 19:45:41 10° W 19:50:21 69° S 19:55:04 10° E visible
25 May - 21:30:09 10° W 21:34:44 52° S 21:39:22 10° ESE visible
25 May - 23:14:46 10° WSW 23:19:08 37° S 23:23:33 10° ESE night (unlit)
26 May - 00:59:36 10° WSW 01:03:35 26° S 01:07:36 10° SE night (unlit)
26 May - 02:44:38 10° SW 02:48:07 20° S 02:51:36 10° SE night (unlit)
26 May - 04:29:40 10° SW 04:32:44 17° S 04:35:47 10° SE visible
26 May - 06:14:22 10° SW 06:17:23 16° S 06:20:23 10° SE daylight
26 May - 07:58:37 10° SW 08:02:00 19° S 08:05:22 10° SE daylight
26 May - 09:42:38 10° SW 09:46:32 24° S 09:50:25 10° ESE daylight
26 May - 11:26:40 10° WSW 11:31:00 34° S 11:35:18 10° ESE daylight
26 May - 13:10:49 10° WSW 13:15:24 49° S 13:19:58 10° E daylight
26 May - 14:55:06 10° WSW 14:59:47 66° S 15:04:27 10° E daylight
26 May - 16:39:29 10° W 16:44:10 76° S 16:48:51 10° E daylight
26 May - 18:23:52 10° W 18:28:33 74° S 18:33:15 10° E daylight
26 May - 20:08:18 10° W 20:12:56 61° S 20:17:36 10° ESE visible
26 May - 21:52:50 10° WSW 21:57:19 44° S 22:01:51 10° ESE night (unlit)
26 May - 23:37:34 10° WSW 23:41:44 30° S 23:45:56 10° SE night (unlit)
27 May - 01:22:31 10° WSW 01:26:13 22° S 01:29:57 10° SE night (unlit)
27 May - 03:07:34 10° SW 03:10:48 18° S 03:14:01 10° SE visible
27 May - 04:52:27 10° SW 04:55:26 16° S 04:58:24 10° SE visible
27 May - 06:36:54 10° SW 06:40:04 17° S 06:43:15 10° SE daylight
27 May - 08:21:00 10° SW 08:24:40 21° S 08:28:19 10° SE daylight
27 May - 10:05:01 10° SW 10:09:09 29° S 10:13:18 10° ESE daylight
27 May - 11:49:05 10° WSW 11:53:35 41° S 11:58:04 10° ESE daylight
27 May - 13:33:19 10° WSW 13:37:59 58° S 13:42:37 10° E daylight
27 May - 15:17:40 10° W 15:22:22 73° S 15:27:03 10° E daylight
27 May - 17:02:03 10° W 17:06:45 77° S 17:11:27 10° E daylight
27 May - 18:46:29 10° W 18:51:09 68° S 18:55:49 10° E visible
27 May - 20:30:57 10° W 20:35:31 52° S 20:40:07 10° ESE visible
27 May - 22:15:35 10° WSW 22:19:55 36° S 22:24:17 10° ESE night (unlit)
